Total_Precipitation_Accumulation
0.60 0.60 0.57 0.47 0.43 0.42 0.40 0.40 0.34 0.35 0.41 0.45 0.50 0.57 0.60 0.63 0.75 0.92 1.01 1.00 0.98 0.96 0.94 1.01 1.14 1.19 1.23 1.17 1.09 0.96 0.85 0.83 0.79 0.71 0.51 0.31 0.28 0.29 0.25 0.16 0.10 0.07 0.07
0.63 0.62 0.58 0.49 0.43 0.43 0.38 0.35 0.30 0.29 0.31 0.36 0.42 0.49 0.55 0.56 0.58 0.66 0.74 0.75 0.75 0.77 0.78 0.80 0.90 1.00 1.10 1.17 1.17 1.13 1.09 0.97 0.93 0.90 0.75 0.51 0.36 0.32 0.26 0.22 0.17 0.12 0.09
0.81 0.83 0.73 0.58 0.53 0.49 0.43 0.40 0.34 0.33 0.35 0.36 0.41 0.45 0.49 0.50 0.52 0.52 0.54 0.58 0.60 0.59 0.60 0.62 0.65 0.74 0.87 1.00 1.08 1.11 1.13 1.12 1.08 1.00 0.88 0.73 0.50 0.37 0.31 0.25 0.20 0.18 0.14
1.07 1.02 0.84 0.70 0.62 0.54 0.47 0.41 0.38 0.40 0.41 0.44 0.53 0.54 0.52 0.47 0.49 0.51 0.52 0.50 0.47 0.45 0.45 0.43 0.44 0.49 0.58 0.71 0.86 1.00 1.09 1.14 1.17 1.14 0.97 0.76 0.63 0.53 0.38 0.31 0.30 0.27 0.24
1.04 0.92 0.78 0.65 0.54 0.47 0.46 0.42 0.42 0.44 0.43 0.46 0.51 0.56 0.58 0.55 0.53 0.55 0.52 0.47 0.44 0.43 0.38 0.30 0.28 0.32 0.35 0.41 0.48 0.66 0.86 0.99 1.04 1.07 0.99 0.81 0.66 0.57 0.46 0.40 0.38 0.38 0.33
0.92 0.79 0.62 0.53 0.49 0.45 0.43 0.38 0.36 0.36 0.37 0.39 0.43 0.51 0.58 0.52 0.61 0.56 0.45 0.37 0.38 0.38 0.33 0.28 0.27 0.29 0.27 0.23 0.24 0.33 0.51 0.68 0.82 0.93 0.97 0.86 0.73 0.64 0.58 0.50 0.41 0.35 0.30
0.62 0.57 0.46 0.39 0.37 0.36 0.35 0.34 0.35 0.36 0.35 0.37 0.38 0.44 0.51 0.64 0.55 0.39 0.37 0.33 0.34 0.36 0.37 0.37 0.32 0.29 0.33 0.26 0.22 0.23 0.26 0.30 0.42 0.62 0.78 0.83 0.90 0.77 0.61 0.49 0.41 0.36 0.36
0.51 0.50 0.43 0.38 0.34 0.33 0.32 0.34 0.41 0.41 0.37 0.39 0.40 0.40 0.45 0.54 0.44 0.30 0.31 0.29 0.37 0.42 0.42 0.43 0.45 0.39 0.36 0.36 0.34 0.38 0.36 0.30 0.36 0.29 0.40 0.67 0.74 0.72 0.64 0.56 0.50 0.43 0.37
0.30 0.34 0.33 0.28 0.29 0.32 0.32 0.37 0.41 0.41 0.44 0.44 0.44 0.44 0.46 0.48 0.39 0.29 0.29 0.36 0.48 0.49 0.43 0.47 0.48 0.42 0.46 0.45 0.48 0.58 0.56 0.47 0.57 0.56 0.50 0.51 0.52 0.49 0.49 0.52 0.52 0.46 0.40
0.10 0.14 0.18 0.19 0.22 0.28 0.36 0.42 0.39 0.37 0.41 0.41 0.39 0.36 0.38 0.39 0.42 0.29 0.33 0.45 0.51 0.52 0.50 0.52 0.61 0.54 0.52 0.42 0.39 0.52 0.59 0.52 0.44 0.46 0.42 0.34 0.26 0.27 0.32 0.34 0.47 0.54 0.52
0.02 0.04 0.07 0.11 0.16 0.25 0.32 0.31 0.30 0.33 0.35 0.35 0.37 0.36 0.35 0.41 0.49 0.47 0.50 0.52 0.57 0.60 0.63 0.67 0.64 0.67 0.47 0.36 0.34 0.35 0.42 0.42 0.43 0.47 0.49 0.42 0.34 0.32 0.28 0.26 0.30 0.36 0.44
0.00 0.01 0.02 0.04 0.07 0.12 0.19 0.22 0.25 0.28 0.29 0.28 0.29 0.30 0.33 0.41 0.48 0.50 0.51 0.53 0.58 0.57 0.62 0.61 0.55 0.56 0.41 0.30 0.23 0.26 0.26 0.24 0.31 0.44 0.47 0.45 0.43 0.42 0.36 0.31 0.28 0.27 0.30
0.00 0.00 0.00 0.01 0.02 0.05 0.12 0.16 0.20 0.26 0.28 0.26 0.25 0.26 0.29 0.33 0.39 0.41 0.41 0.40 0.41 0.43 0.40 0.45 0.43 0.36 0.29 0.21 0.20 0.22 0.21 0.23 0.28 0.32 0.38 0.39 0.38 0.39 0.38 0.36 0.32 0.28 0.24
0.00 0.00 0.00 0.01 0.01 0.03 0.06 0.12 0.21 0.24 0.22 0.23 0.25 0.26 0.29 0.32 0.32 0.32 0.34 0.35 0.32 0.33 0.31 0.31 0.28 0.24 0.23 0.22 0.21 0.20 0.20 0.26 0.29 0.30 0.32 0.35 0.37 0.37 0.37 0.37 0.39 0.39 0.39
0.00 0.00 0.00 0.00 0.01 0.02 0.02 0.06 0.13 0.15 0.14 0.18 0.23 0.27 0.31 0.33 0.30 0.26 0.26 0.31 0.35 0.38 0.41 0.34 0.28 0.26 0.24 0.27 0.27 0.24 0.25 0.29 0.31 0.30 0.31 0.31 0.31 0.34 0.36 0.33 0.32 0.35 0.37
0.00 0.00 0.00 0.00 0.01 0.01 0.02 0.03 0.05 0.05 0.07 0.08 0.09 0.13 0.13 0.13 0.13 0.13 0.16 0.20 0.26 0.31 0.42 0.45 0.46 0.50 0.49 0.46 0.41 0.32 0.27 0.26 0.29 0.34 0.32 0.30 0.30 0.30 0.33 0.34 0.32 0.33 0.32
0.00 0.00 0.00 0.00 0.01 0.01 0.02 0.05 0.05 0.03 0.01 0.02 0.02 0.03 0.06 0.08 0.10 0.12 0.13 0.16 0.19 0.23 0.40 0.53 0.53 0.51 0.45 0.40 0.36 0.31 0.24 0.20 0.19 0.23 0.31 0.35 0.33 0.33 0.36 0.38 0.36 0.32 0.30
0.00 0.00 0.00 0.02 0.02 0.02 0.04 0.07 0.13 0.15 0.11 0.04 0.02 0.01 0.03 0.05 0.07 0.10 0.16 0.22 0.21 0.22 0.35 0.42 0.41 0.38 0.32 0.23 0.17 0.13 0.13 0.11 0.10 0.10 0.12 0.19 0.30 0.38 0.45 0.47 0.50 0.50 0.47
0.00 0.01 0.01 0.04 0.04 0.05 0.06 0.10 0.13 0.13 0.10 0.05 0.03 0.02 0.01 0.02 0.02 0.04 0.09 0.15 0.15 0.14 0.16 0.16 0.16 0.16 0.14 0.11 0.08 0.05 0.04 0.04 0.04 0.04 0.05 0.07 0.13 0.25 0.38 0.47 0.51 0.55 0.53
0.00 0.00 0.01 0.03 0.05 0.04 0.05 0.06 0.09 0.08 0.05 0.04 0.04 0.03 0.03 0.04 0.04 0.04 0.04 0.07 0.09 0.08 0.07 0.07 0.06 0.06 0.06 0.05 0.05 0.04 0.04 0.03 0.04 0.05 0.08 0.12 0.17 0.19 0.22 0.31 0.41 0.45 0.43
0.00 0.00 0.00 0.02 0.04 0.04 0.04 0.02 0.03 0.05 0.04 0.03 0.02 0.01 0.02 0.06 0.08 0.06 0.04 0.04 0.05 0.06 0.06 0.05 0.05 0.04 0.03 0.04 0.04 0.04 0.03 0.03 0.03 0.03 0.06 0.12 0.18 0.24 0.25 0.24 0.25 0.29 0.33
0.00 0.00 0.01 0.03 0.05 0.05 0.03 0.03 0.03 0.04 0.03 0.02 0.02 0.01 0.01 0.06 0.07 0.07 0.07 0.05 0.05 0.05 0.04 0.04 0.05 0.05 0.04 0.04 0.04 0.04 0.03 0.03 0.03 0.03 0.04 0.05 0.08 0.13 0.18 0.23 0.25 0.25 0.26
0.00 0.00 0.00 0.02 0.03 0.03 0.03 0.03 0.03 0.04 0.04 0.03 0.02 0.02 0.02 0.04 0.05 0.06 0.07 0.07 0.06 0.06 0.05 0.07 0.07 0.07 0.07 0.08 0.07 0.06 0.05 0.05 0.05 0.05 0.06 0.05 0.05 0.06 0.08 0.11 0.14 0.17 0.20
0.00 0.00 0.01 0.02 0.02 0.02 0.03 0.04 0.04 0.03 0.04 0.03 0.03 0.03 0.04 0.05 0.04 0.04 0.04 0.04 0.03 0.04 0.04 0.05 0.06 0.07 0.08 0.10 0.10 0.10 0.09 0.08 0.06 0.05 0.07 0.09 0.10 0.10 0.10 0.10 0.11 0.13 0.17
0.00 0.00 0.01 0.01 0.02 0.02 0.02 0.02 0.03 0.03 0.03 0.03 0.04 0.03 0.03 0.04 0.04 0.03 0.03 0.03 0.04 0.03 0.03 0.02 0.03 0.04 0.07 0.12 0.13 0.10 0.12 0.11 0.08 0.05 0.04 0.06 0.08 0.09 0.11 0.13 0.16 0.19 0.24
0.00 0.00 0.01 0.01 0.02 0.02 0.02 0.02 0.03 0.03 0.03 0.03 0.03 0.03 0.03 0.03 0.03 0.03 0.03 0.04 0.04 0.03 0.02 0.03 0.04 0.03 0.04 0.09 0.13 0.16 0.13 0.09 0.09 0.09 0.05 0.04 0.07 0.11 0.14 0.17 0.20 0.25 0.28